Time,TemperatureF,DewpointF,PressureIn,WindDirection,WindDirectionDegrees,WindSpeedMPH,WindSpeedGustMPH,Humidity,HourlyPrecipIn,Conditions,Clouds,dailyrainin,SoftwareType,DateUTC
2013-11-22 00:02:00,-999.0,-99.9,29.18,NE,51,24.0,32.0,-999,-99.99,,,-99.99,,2013-11-22 09:02:00,
2013-11-22 00:22:00,-999.0,-99.9,29.16,NE,46,25.0,33.0,-999,-99.99,,,-99.99,,2013-11-22 09:22:00,
2013-11-22 00:34:00,-999.0,-99.9,29.15,NE,51,22.0,33.0,-999,-99.99,,,-99.99,,2013-11-22 09:34:00,
2013-11-22 00:43:00,-999.0,-99.9,29.15,NE,51,23.0,30.0,-999,-99.99,,,-99.99,,2013-11-22 09:43:00,
2013-11-22 00:53:00,24.0,-99.9,29.15,NE,47,24.0,34.0,-999,-99.99,,,-99.99,,2013-11-22 09:53:00,
2013-11-22 01:03:00,-999.0,-99.9,29.14,NE,47,25.0,32.0,-999,-99.99,,,-99.99,,2013-11-22 10:03:00,
2013-11-22 01:13:00,-999.0,-99.9,29.15,NE,48,20.0,33.0,-999,-99.99,,,-99.99,,2013-11-22 10:13:00,
2013-11-22 01:33:00,-999.0,-99.9,29.16,NE,48,23.0,33.0,-999,-99.99,,,-99.99,,2013-11-22 10:33:00,
2013-11-22 01:53:00,-999.0,-99.9,29.16,NE,46,18.0,28.0,-999,-99.99,,,-99.99,,2013-11-22 10:53:00,
2013-11-22 02:02:00,-999.0,-99.9,29.15,NE,52,21.0,30.0,-999,-99.99,,,-99.99,,2013-11-22 11:02:00,
2013-11-22 02:12:00,-999.0,-99.9,29.16,NE,44,17.0,25.0,-999,-99.99,,,-99.99,,2013-11-22 11:12:00,
2013-11-22 02:33:00,-999.0,-99.9,29.16,NE,47,14.0,27.0,-999,-99.99,,,-99.99,,2013-11-22 11:33:00,
2013-11-22 02:43:00,-999.0,-99.9,29.16,NE,35,19.0,25.0,-999,-99.99,,,-99.99,,2013-11-22 11:43:00,
2013-11-22 02:53:00,-999.0,-99.9,29.15,NE,46,17.0,26.0,-999,-99.99,,,-99.99,,2013-11-22 11:53:00,
2013-11-22 03:02:00,-999.0,-99.9,29.15,NE,48,16.0,23.0,-999,-99.99,,,-99.99,,2013-11-22 12:02:00,
2013-11-22 03:22:00,-999.0,-99.9,29.16,NE,48,13.0,23.0,-999,-99.99,,,-99.99,,2013-11-22 12:22:00,
2013-11-22 03:32:00,-999.0,-99.9,29.16,NE,44,18.0,24.0,-999,-99.99,,,-99.99,,2013-11-22 12:32:00,
2013-11-22 03:42:00,-999.0,-99.9,29.16,NE,42,17.0,24.0,-999,-99.99,,,-99.99,,2013-11-22 12:42:00,
2013-11-22 04:02:00,-999.0,-99.9,29.16,NE,43,13.0,22.0,-999,-99.99,,,-99.99,,2013-11-22 13:02:00,
2013-11-22 04:22:00,-999.0,-99.9,29.16,NE,41,15.0,19.0,-999,-99.99,,,-99.99,,2013-11-22 13:22:00,
2013-11-22 04:32:00,-999.0,-99.9,29.16,NE,37,13.0,17.0,-999,-99.99,,,-99.99,,2013-11-22 13:32:00,
2013-11-22 04:42:00,-999.0,-99.9,29.16,NE,35,7.0,19.0,-999,-99.99,,,-99.99,,2013-11-22 13:42:00,
2013-11-22 05:02:00,-999.0,-99.9,29.16,NE,37,12.0,17.0,-999,-99.99,,,-99.99,,2013-11-22 14:02:00,
2013-11-22 05:22:00,-999.0,-99.9,29.16,NE,48,13.0,17.0,-999,-99.99,,,-99.99,,2013-11-22 14:22:00,
2013-11-22 05:32:00,-999.0,-99.9,29.16,NE,45,11.0,17.0,-999,-99.99,,,-99.99,,2013-11-22 14:32:00,
2013-11-22 05:42:00,-999.0,-99.9,29.16,NE,45,11.0,16.0,-999,-99.99,,,-99.99,,2013-11-22 14:42:00,
2013-11-22 06:02:00,-999.0,-99.9,29.16,NE,41,9.0,15.0,-999,-99.99,,,-99.99,,2013-11-22 15:02:00,
2013-11-22 06:11:00,-999.0,-99.9,29.15,NE,41,9.0,15.0,-999,-99.99,,,-99.99,,2013-11-22 15:11:00,
2013-11-22 06:22:00,29.0,-99.9,29.15,NE,53,9.0,15.0,-999,-99.99,,,-99.99,,2013-11-22 15:22:00,
2013-11-22 06:34:00,-999.0,-99.9,29.15,NE,41,11.0,15.0,-999,-99.99,,,-99.99,,2013-11-22 15:34:00,
2013-11-22 06:54:00,-999.0,-99.9,29.15,NE,45,10.0,12.0,-999,-99.99,,,-99.99,,2013-11-22 15:54:00,
2013-11-22 07:03:00,-999.0,-99.9,29.14,NE,45,10.0,14.0,-999,-99.99,,,-99.99,,2013-11-22 16:03:00,
2013-11-22 07:13:00,-999.0,-99.9,29.14,NE,39,9.0,14.0,-999,-99.99,,,-99.99,,2013-11-22 16:13:00,
2013-11-22 07:33:00,-999.0,-99.9,29.14,NE,39,8.0,14.0,-999,-99.99,,,-99.99,,2013-11-22 16:33:00,
2013-11-22 07:44:00,-999.0,-99.9,29.13,NE,42,9.0,12.0,-999,-99.99,,,-99.99,,2013-11-22 16:44:00,
2013-11-22 07:53:00,-999.0,-99.9,29.13,NE,46,9.0,13.0,-999,-99.99,,,-99.99,,2013-11-22 16:53:00,
2013-11-22 08:03:00,-999.0,-99.9,29.13,NE,48,7.0,12.0,-999,-99.99,,,-99.99,,2013-11-22 17:03:00,
2013-11-22 08:12:00,-999.0,-99.9,29.13,NE,35,9.0,13.0,-999,-99.99,,,-99.99,,2013-11-22 17:12:00,
2013-11-22 08:34:00,-999.0,-99.9,29.12,NE,41,9.0,15.0,-999,-99.99,,,-99.99,,2013-11-22 17:34:00,
2013-11-22 08:42:00,-999.0,-99.9,29.12,NE,54,7.0,12.0,-999,-99.99,,,-99.99,,2013-11-22 17:42:00,
2013-11-22 08:53:00,-999.0,-99.9,29.12,NE,37,9.0,13.0,-999,-99.99,,,-99.99,,2013-11-22 17:53:00,
2013-11-22 09:02:00,-999.0,-99.9,29.12,NE,49,9.0,14.0,-999,-99.99,,,-99.99,,2013-11-22 18:02:00,
2013-11-22 09:12:00,-999.0,-99.9,29.12,ENE,58,10.0,14.0,-999,-99.99,,,-99.99,,2013-11-22 18:12:00,
2013-11-22 09:33:00,-999.0,-99.9,29.12,ENE,60,9.0,13.0,-999,-99.99,,,-99.99,,2013-11-22 18:33:00,
2013-11-22 09:52:00,-999.0,-99.9,29.12,NE,46,6.0,11.0,-999,-99.99,,,-99.99,,2013-11-22 18:52:00,
2013-11-22 10:01:00,-999.0,-99.9,29.13,NE,47,8.0,12.0,-999,-99.99,,,-99.99,,2013-11-22 19:01:00,
2013-11-22 10:11:00,-999.0,-99.9,29.13,NE,54,5.0,10.0,-999,-99.99,,,-99.99,,2013-11-22 19:11:00,
2013-11-22 10:32:00,-999.0,-99.9,29.12,ENE,57,5.0,10.0,-999,-99.99,,,-99.99,,2013-11-22 19:32:00,
2013-11-22 10:53:00,-999.0,-99.9,29.12,NE,50,6.0,10.0,-999,-99.99,,,-99.99,,2013-11-22 19:53:00,
2013-11-22 11:02:00,-999.0,-99.9,29.12,ENE,61,8.0,11.0,-999,-99.99,,,-99.99,,2013-11-22 20:02:00,
2013-11-22 11:11:00,-999.0,-99.9,29.13,SE,146,3.0,3.0,-999,-99.99,,,-99.99,,2013-11-22 20:11:00,
2013-11-22 11:22:00,31.0,-99.9,29.13,SSE,160,3.0,5.0,-999,-99.99,,,-99.99,,2013-11-22 20:22:00,
2013-11-22 11:32:00,-999.0,-99.9,29.13,South,175,3.0,4.0,-999,-99.99,,,-99.99,,2013-11-22 20:32:00,
2013-11-22 11:52:00,-999.0,-99.9,29.14,South,189,5.0,7.0,-999,-99.99,,,-99.99,,2013-11-22 20:52:00,
2013-11-22 12:02:00,-999.0,-99.9,29.14,SSW,204,11.0,12.0,-999,-99.99,,,-99.99,,2013-11-22 21:02:00,
2013-11-22 12:11:00,-999.0,-99.9,29.15,South,183,10.0,13.0,-999,-99.99,,,-99.99,,2013-11-22 21:11:00,
2013-11-22 12:33:00,-999.0,-99.9,29.16,SSW,195,12.0,15.0,-999,-99.99,,,-99.99,,2013-11-22 21:33:00,
2013-11-22 12:53:00,-999.0,-99.9,29.16,South,186,12.0,14.0,-999,-99.99,,,-99.99,,2013-11-22 21:53:00,
2013-11-22 13:03:00,-999.0,-99.9,29.17,SSW,199,13.0,14.0,-999,-99.99,,,-99.99,,2013-11-22 22:03:00,
2013-11-22 13:13:00,-999.0,-99.9,29.18,SSW,197,14.0,17.0,-999,-99.99,,,-99.99,,2013-11-22 22:13:00,
2013-11-22 13:33:00,-999.0,-99.9,29.19,SSW,199,15.0,18.0,-999,-99.99,,,-99.99,,2013-11-22 22:33:00,
2013-11-22 13:42:00,-999.0,-99.9,29.20,SSW,199,17.0,18.0,-999,-99.99,,,-99.99,,2013-11-22 22:42:00,
2013-11-22 13:53:00,29.0,-99.9,29.20,SSW,202,15.0,18.0,-999,-99.99,,,-99.99,,2013-11-22 22:53:00,
2013-11-22 14:02:00,-999.0,-99.9,29.21,SSW,198,17.0,19.0,-999,-99.99,,,-99.99,,2013-11-22 23:02:00,
2013-11-22 14:12:00,-999.0,-99.9,29.21,SSW,196,16.0,18.0,-999,-99.99,,,-99.99,,2013-11-22 23:12:00,
2013-11-22 14:22:00,-999.0,-99.9,29.20,South,191,12.0,16.0,-999,-99.99,,,-99.99,,2013-11-22 23:22:00,
2013-11-22 14:33:00,-999.0,-99.9,29.21,South,190,13.0,15.0,-999,-99.99,,,-99.99,,2013-11-22 23:33:00,
2013-11-22 15:22:00,33.0,-99.9,29.23,SSW,210,35.0,38.0,-999,-99.99,,,-99.99,,2013-11-23 00:22:00,
2013-11-22 16:42:00,-999.0,-99.9,29.28,SSW,210,42.0,48.0,-999,-99.99,,,-99.99,,2013-11-23 01:42:00,
2013-11-22 17:02:00,-999.0,-99.9,29.29,SSW,202,43.0,46.0,-999,-99.99,,,-99.99,,2013-11-23 02:02:00,
2013-11-22 17:11:00,-999.0,-99.9,29.29,SSW,198,37.0,45.0,-999,-99.99,,,-99.99,,2013-11-23 02:11:00,
2013-11-22 17:22:00,-999.0,-99.9,29.30,SSW,197,37.0,43.0,-999,-99.99,,,-99.99,,2013-11-23 02:22:00,
2013-11-22 17:32:00,-999.0,-99.9,29.31,SSW,196,36.0,43.0,-999,-99.99,,,-99.99,,2013-11-23 02:32:00,
2013-11-22 17:42:00,-999.0,-99.9,29.31,SSW,205,34.0,42.0,-999,-99.99,,,-99.99,,2013-11-23 02:42:00,
2013-11-22 18:02:00,-999.0,-99.9,29.33,SSW,207,37.0,41.0,-999,-99.99,,,-99.99,,2013-11-23 03:02:00,
2013-11-22 18:12:00,-999.0,-99.9,29.33,SSW,208,35.0,45.0,-999,-99.99,,,-99.99,,2013-11-23 03:12:00,
2013-11-22 18:33:00,-999.0,-99.9,29.34,SSW,207,38.0,48.0,-999,-99.99,,,-99.99,,2013-11-23 03:33:00,
2013-11-22 18:53:00,-999.0,-99.9,29.35,SSW,213,41.0,45.0,-999,-99.99,,,-99.99,,2013-11-23 03:53:00,
2013-11-22 19:03:00,-999.0,-99.9,29.36,SW,215,38.0,43.0,-999,-99.99,,,-99.99,,2013-11-23 04:03:00,
2013-11-22 19:13:00,-999.0,-99.9,29.37,SW,223,36.0,40.0,-999,-99.99,,,-99.99,,2013-11-23 04:13:00,
2013-11-22 19:33:00,-999.0,-99.9,29.38,SW,219,34.0,41.0,-999,-99.99,,,-99.99,,2013-11-23 04:33:00,
2013-11-22 19:43:00,-999.0,-99.9,29.39,SW,221,34.0,43.0,-999,-99.99,,,-99.99,,2013-11-23 04:43:00,
2013-11-22 19:53:00,-999.0,-99.9,29.39,SW,220,35.0,41.0,-999,-99.99,,,-99.99,,2013-11-23 04:53:00,
2013-11-22 20:03:00,-999.0,-99.9,29.40,SW,232,35.0,39.0,-999,-99.99,,,-99.99,,2013-11-23 05:03:00,
2013-11-22 20:12:00,-999.0,-99.9,29.41,SW,221,33.0,38.0,-999,-99.99,,,-99.99,,2013-11-23 05:12:00,
2013-11-22 20:23:00,31.0,-99.9,29.41,SW,227,32.0,38.0,-999,-99.99,,,-99.99,,2013-11-23 05:23:00,
2013-11-22 20:33:00,-999.0,-99.9,29.42,SW,219,32.0,36.0,-999,-99.99,,,-99.99,,2013-11-23 05:33:00,
2013-11-22 20:43:00,-999.0,-99.9,29.43,SW,226,28.0,36.0,-999,-99.99,,,-99.99,,2013-11-23 05:43:00,
2013-11-22 21:02:00,-999.0,-99.9,29.44,SW,230,29.0,36.0,-999,-99.99,,,-99.99,,2013-11-23 06:02:00,
2013-11-22 21:22:00,-999.0,-99.9,29.43,SSW,200,21.0,32.0,-999,-99.99,,,-99.99,,2013-11-23 06:22:00,
2013-11-22 21:32:00,-999.0,-99.9,29.44,South,173,18.0,23.0,-999,-99.99,,,-99.99,,2013-11-23 06:32:00,
2013-11-22 21:42:00,-999.0,-99.9,29.44,SSE,168,19.0,23.0,-999,-99.99,,,-99.99,,2013-11-23 06:42:00,
2013-11-22 22:02:00,-999.0,-99.9,29.44,South,175,19.0,23.0,-999,-99.99,,,-99.99,,2013-11-23 07:02:00,
2013-11-22 22:11:00,-999.0,-99.9,29.45,South,169,12.0,18.0,-999,-99.99,,,-99.99,,2013-11-23 07:11:00,
2013-11-22 22:22:00,-999.0,-99.9,29.45,South,172,13.0,16.0,-999,-99.99,,,-99.99,,2013-11-23 07:22:00,
2013-11-22 22:32:00,-999.0,-99.9,29.46,SSW,196,19.0,27.0,-999,-99.99,,,-99.99,,2013-11-23 07:32:00,
2013-11-22 22:42:00,-999.0,-99.9,29.46,SSW,198,24.0,29.0,-999,-99.99,,,-99.99,,2013-11-23 07:42:00,
2013-11-22 22:52:00,28.0,-99.9,29.46,SSW,202,26.0,30.0,-999,-99.99,,,-99.99,,2013-11-23 07:52:00,
2013-11-22 23:01:00,-999.0,-99.9,29.46,SSW,193,23.0,28.0,-999,-99.99,,,-99.99,,2013-11-23 08:01:00,
2013-11-22 23:12:00,-999.0,-99.9,29.47,South,178,15.0,22.0,-999,-99.99,,,-99.99,,2013-11-23 08:12:00,
2013-11-22 23:22:00,-999.0,-99.9,29.47,South,181,17.0,19.0,-999,-99.99,,,-99.99,,2013-11-23 08:22:00,
2013-11-22 23:32:00,-999.0,-99.9,29.47,SSE,162,15.0,16.0,-999,-99.99,,,-99.99,,2013-11-23 08:32:00,
2013-11-22 23:42:00,-999.0,-99.9,29.47,South,186,16.0,19.0,-999,-99.99,,,-99.99,,2013-11-23 08:42:00,